Regional Weather Roundup
Issued by NWS Cleveland, OH

Home | Current Version | Previous Version | Text Only | Print | Product List | Glossary Off
Versions: 1 2 3 4 5 6 7 8 9 10 11 12 13 14 15 16 17 18 19 20 21 22 23 24 25 26 27 28 29 30 31 32 33 34 35 36 37 38 39 40 41 42 43 44 45 46 47 48 49 50

000
ASUS41 KCLE 050202
RWRCLE
OHIO REGIONAL WEATHER ROUNDUP
NATIONAL WEATHER SERVICE CLEVELAND, OH
1000 PM EDT MON MAY 04 2015

NOTE: "FAIR" INDICATES FEW OR NO CLOUDS BELOW 12,000 FEET WITH NO
SIGNIFICANT WEATHER AND/OR OBSTRUCTIONS TO VISIBILITY.

OHZ001>008-015>018-024>027-034-035-043-044-050300-
   NORTHWEST OHIO

CITY           SKY/WX    TMP DP  RH WIND       PRES   REMARKS
DEFIANCE       CLOUDY    65  60  84 SW5       30.18R
FINDLAY        CLOUDY    61  58  90 S6        30.18R
TOLEDO EXPRESS CLOUDY    65  60  84 SW7       30.17R
TOLEDO EXEC    CLOUDY    65  58  78 SW8       30.17R
LIMA           CLOUDY    62  59  90 CALM      30.19R
$$

OHZ009>014-019>023-028>033-038-089-050300-
   NORTHEAST OHIO

CITY           SKY/WX    TMP DP  RH WIND       PRES   REMARKS
CLE-HOPKINS    MOCLDY    64  58  80 S8        30.20R
CLE-LAKEFRONT  MOCLDY    66  58  75 S7        30.17R
CUY CO. ARPT   MOCLDY    66  61  82 SW7       30.19R
LORAIN-ELYRIA  MOCLDY    63  58  83 SW7       30.18S
ASHTABULA      MOCLDY    62  57  83 SW3       30.20R
AKRON-CANTON   CLOUDY    62  59  90 SW5       30.22R
WOOSTER        CLOUDY    61  59  93 S6        30.21S FOG
MANSFIELD      CLOUDY    60  60 100 S5        30.21R FOG
YOUNGSTOWN     CLOUDY    62  58  86 SW7       30.21R
$$

OHZ042-051>053-060>062-070>072-077>081-050300-
  SOUTHWEST OHIO

CITY           SKY/WX    TMP DP  RH WIND       PRES   REMARKS
CINC-COVINGTON PTCLDY    68  57  68 CALM      30.18R
CINC-LUNKEN    MOCLDY    64  61  90 CALM      30.18R
HAMILTON       PTCLDY    63  59  87 CALM      30.18R
DAYTON         CLOUDY    67  58  72 NE5       30.19R
WRIGHT-PAT AFB CLOUDY    69  58  68 CALM      30.18R
DAYTON GENERAL MOCLDY    68  57  68 CALM      30.18R
WILMINGTON     MOCLDY    68  55  63 N3        30.20R
$$

OHZ036-037-039>041-045>050-054>059-063>069-073>076-082>088-050300-
  CENTRAL AND SOUTHEAST OHIO

CITY           SKY/WX    TMP DP  RH WIND       PRES   REMARKS
COLUMBUS       CLOUDY    64  62  93 CALM      30.19R
OSU AIRPORT    CLOUDY    63  62  97 CALM      30.19S FOG
BOLTON FIELD   NOT AVBL
RICKENBACK AFB NOT AVBL
NEWARK         CLOUDY    63  61  93 CALM      30.20R
MARION         CLOUDY    62  60  93 CALM      30.20R FOG
LANCASTER      CLOUDY    64  61  90 CALM      30.20S
ZANESVILLE     LGT RAIN  63  59  87 NE5       30.22R FOG
NEW PHILLY     LGT RAIN  65  62  90 SE3       30.23R FOG
$$



USA.gov is the U.S. government's official web portal to all federal, state and local government web resources and services.